Weather Roundup
Issued by NWS Corpus Christi, TX

Home | Current Version | Previous Version | Text Only | Print | Product List | Glossary On
Versions: 1 2 3 4 5 6 7 8 9 10 11 12 13 14 15 16 17 18 19 20 21 22 23 24 25 26 27 28 29 30 31 32 33 34 35 36 37 38 39 40 41 42 43 44 45 46 47 48 49 50
000
ASUS44 KCRP 281010
HRRCRP

SOUTH TEXAS REGIONAL WEATHER ROUNDUP
NATIONAL WEATHER SERVICE CORPUS CHRISTI TX
500 AM CDT FRI APR 28 2017


TXZ229>244-281100-
...CORPUS CHRISTI AREA OBSERVATIONS...

CITY           SKY/WX    TMP DP  RH WIND       PRES   REMARKS
CORPUS CHRISTI CLOUDY    74  73  97 SE12      29.57F
NAS CORPUS CHR CLOUDY    77  74  90 S14       29.57S FOG
ROCKPORT       CLOUDY    76  72  87 SE7       29.58S
KINGSVILLE NAS MOCLDY    75  73  93 S15       29.57S
ALICE          CLOUDY    75  71  87 S16G22    29.56S
ORANGE GROVE   CLOUDY    75  73  93 S12       29.57S
FALFURRIAS     MOCLDY    73  70  90 SE7       29.55F
$$

...VICTORIA AREA OBSERVATIONS...

CITY           SKY/WX    TMP DP  RH WIND       PRES   REMARKS
VICTORIA       CLEAR     73  70  90 SE10      29.58F FOG
BEEVILLE       CLOUDY   N/A N/A N/A SE6       29.58S
PLEASANTON     HVY RAIN  72  68  87 CALM      29.58S
SAN ANTONIO    CLOUDY    71  66  84 S7        29.60S
$$

...LAREDO AREA OBSERVATIONS...

CITY           SKY/WX    TMP DP  RH WIND       PRES   REMARKS
LAREDO         CLOUDY    73  70  90 SE5       29.55R
COTULLA        MOCLDY    72  68  87 SE6       29.56R
DEL RIO        CLOUDY    72  68  87 E9        29.57R
MCALLEN        PTCLDY    76  71  85 SE14      29.55F HAZE
HEBBRONVILLE   CLOUDY    71  69  93 S12       29.56S FOG
$$

...OTHER TEXAS OBSERVATIONS...

CITY           SKY/WX    TMP DP  RH WIND       PRES   REMARKS
BROWNSVILLE    PTCLDY    77  73  87 S12       29.58S
HOUSTON        CLOUDY    76  71  85 S10       29.62S
COL. STATION   CLOUDY    72  68  87 S8        29.60S
AUSTIN         CLOUDY    73  67  81 S13       29.58F
WACO           CLOUDY    70  65  84 S18G24    29.56S
FORT WORTH     CLOUDY    68  61  78 S16G23    29.53F
WICHITA FALLS  CLOUDY    58  53  84 E8        29.50R
LUBBOCK        CLOUDY    53  46  77 N8        29.62R
EL PASO        PTCLDY    71  37  28 S5        29.71R
$$

...MARINE OBSERVATIONS...

STATION/POSITION TIME  SKY/WX   TEMP    WIND        PRES    VSBY  WAVE   SWELL
                                AIR SEA DIR/SP/G                  HT/PER HT/PER
                 (UTC)          (F)     (DEG/KT/KT) (MB)    (MI)  (FT/S) (FT/S)
PORT ARANSAS     1000            76 76  150/ 15/ 16 1001.7R
BUOY 90 E PORT A 0950            77 76  170/ 12/ 14 1003.1R         4/ 8   3/ 8
BUOY 45 SE BAFFI 0950            77     170/ 14/ 16 1000.5F         4/ 7   2/ 7
BUOY 200 E PT IS 0950            79 79  150/ 19/ 25 1004.3S         6/ 6
BUOY 15 E GALVES 0950            76 75  170/ 14/ 16 1003.7R         3/ 6
$$



USA.gov is the U.S. government's official web portal to all federal, state and local government web resources and services.